QPF
0.00 0.00 0.00 0.00 0.00 0.00 0.00 0.00 0.00 0.00 0.00 0.00 0.00 0.00 0.00 0.00 0.00 0.00 0.00 0.00 0.00 0.00 0.00 0.00 0.00 0.00 0.00 0.03 0.04 0.10 0.06 0.01 0.00 0.00 0.00 0.00 0.00 0.00 0.01 0.01 0.00 0.00 0.00
0.00 0.00 0.00 0.00 0.00 0.00 0.00 0.00 0.00 0.00 0.00 0.00 0.00 0.00 0.00 0.00 0.00 0.00 0.00 0.00 0.00 0.00 0.00 0.00 0.00 0.00 0.00 0.00 0.02 0.11 0.07 0.01 0.00 0.00 0.00 0.00 0.00 0.01 0.05 0.02 0.00 0.00 0.00
0.00 0.00 0.00 0.00 0.00 0.00 0.00 0.00 0.00 0.00 0.00 0.00 0.00 0.00 0.00 0.01 0.00 0.00 0.00 0.00 0.00 0.00 0.00 0.00 0.00 0.00 0.00 0.00 0.00 0.09 0.10 0.03 0.01 0.00 0.00 0.00 0.00 0.00 0.01 0.00 0.00 0.00 0.00
0.00 0.00 0.00 0.00 0.00 0.00 0.00 0.00 0.00 0.00 0.00 0.00 0.01 0.01 0.00 0.00 0.01 0.00 0.01 0.01 0.00 0.00 0.00 0.00 0.00 0.00 0.00 0.00 0.01 0.08 0.10 0.03 0.00 0.02 0.02 0.00 0.00 0.00 0.00 0.00 0.00 0.00 0.00
0.01 0.00 0.00 0.00 0.00 0.00 0.00 0.00 0.00 0.00 0.00 0.00 0.01 0.00 0.01 0.00 0.00 0.00 0.00 0.00 0.00 0.01 0.02 0.00 0.00 0.00 0.00 0.04 0.05 0.07 0.03 0.06 0.10 0.01 0.01 0.00 0.00 0.00 0.00 0.00 0.00 0.00 0.00
0.03 0.00 0.00 0.00 0.00 0.00 0.00 0.00 0.00 0.00 0.00 0.00 0.00 0.00 0.00 0.00 0.00 0.00 0.00 0.00 0.01 0.01 0.05 0.01 0.00 0.00 0.00 0.00 0.05 0.06 0.02 0.08 0.07 0.04 0.02 0.00 0.00 0.00 0.00 0.00 0.01 0.00 0.00
0.00 0.00 0.00 0.00 0.00 0.00 0.00 0.00 0.00 0.00 0.00 0.00 0.00 0.00 0.00 0.00 0.00 0.00 0.00 0.00 0.00 0.00 0.01 0.06 0.00 0.01 0.00 0.00 0.00 0.05 0.02 0.05 0.08 0.08 0.02 0.01 0.02 0.01 0.00 0.02 0.03 0.00 0.00
0.00 0.00 0.00 0.00 0.00 0.00 0.00 0.00 0.00 0.00 0.00 0.00 0.00 0.00 0.00 0.00 0.00 0.00 0.00 0.00 0.00 0.00 0.00 0.01 0.00 0.01 0.00 0.04 0.03 0.05 0.03 0.06 0.04 0.04 0.11 0.04 0.06 0.03 0.00 0.01 0.01 0.00 0.00
0.01 0.00 0.00 0.00 0.00 0.00 0.00 0.00 0.00 0.00 0.00 0.00 0.00 0.00 0.00 0.00 0.00 0.00 0.00 0.00 0.00 0.00 0.00 0.00 0.00 0.01 0.00 0.01 0.05 0.03 0.06 0.11 0.09 0.07 0.15 0.02 0.00 0.01 0.00 0.00 0.00 0.01 0.00
0.04 0.01 0.00 0.00 0.00 0.00 0.00 0.00 0.00 0.00 0.00 0.00 0.00 0.00 0.00 0.00 0.00 0.00 0.00 0.00 0.00 0.00 0.00 0.00 0.00 0.01 0.00 0.00 0.00 0.00 0.04 0.07 0.06 0.04 0.11 0.04 0.06 0.03 0.00 0.00 0.00 0.00 0.00
0.06 0.02 0.00 0.00 0.00 0.00 0.00 0.00 0.00 0.00 0.00 0.00 0.00 0.00 0.00 0.00 0.00 0.00 0.01 0.00 0.00 0.00 0.00 0.00 0.00 0.01 0.01 0.00 0.00 0.00 0.00 0.01 0.02 0.04 0.06 0.07 0.06 0.04 0.00 0.00 0.01 0.00 0.00
0.00 0.02 0.00 0.00 0.00 0.00 0.01 0.03 0.02 0.00 0.00 0.00 0.00 0.00 0.02 0.01 0.02 0.00 0.02 0.03 0.00 0.00 0.00 0.00 0.01 0.01 0.00 0.00 0.00 0.00 0.00 0.00 0.02 0.05 0.05 0.11 0.10 0.04 0.04 0.02 0.01 0.02 0.01
0.00 0.00 0.00 0.00 0.00 0.03 0.06 0.03 0.04 0.02 0.04 0.07 0.10 0.10 0.07 0.02 0.01 0.00 0.00 0.02 0.01 0.01 0.00 0.01 0.01 0.02 0.02 0.00 0.00 0.00 0.00 0.00 0.02 0.09 0.07 0.07 0.10 0.06 0.01 0.03 0.02 0.03 0.02
0.00 0.00 0.00 0.00 0.01 0.02 0.02 0.03 0.10 0.14 0.07 0.06 0.01 0.01 0.00 0.06 0.01 0.00 0.01 0.02 0.01 0.00 0.01 0.01 0.04 0.02 0.00 0.01 0.02 0.02 0.00 0.00 0.01 0.10 0.13 0.07 0.09 0.06 0.00 0.00 0.00 0.00 0.02
0.00 0.00 0.00 0.00 0.00 0.01 0.00 0.00 0.00 0.04 0.21 0.21 0.13 0.11 0.01 0.01 0.01 0.00 0.02 0.01 0.04 0.01 0.04 0.01 0.05 0.10 0.04 0.02 0.02 0.06 0.03 0.03 0.03 0.14 0.01 0.05 0.08 0.04 0.01 0.00 0.00 0.00 0.01
0.00 0.00 0.00 0.00 0.00 0.00 0.00 0.00 0.00 0.02 0.06 0.08 0.05 0.07 0.03 0.02 0.01 0.03 0.01 0.01 0.05 0.07 0.03 0.03 0.00 0.04 0.06 0.01 0.01 0.05 0.09 0.07 0.07 0.25 0.12 0.10 0.10 0.08 0.02 0.01 0.00 0.01 0.03
0.00 0.00 0.00 0.00 0.00 0.00 0.00 0.00 0.00 0.02 0.02 0.00 0.00 0.01 0.00 0.00 0.00 0.01 0.02 0.02 0.01 0.02 0.00 0.01 0.00 0.01 0.01 0.00 0.03 0.00 0.01 0.09 0.06 0.18 0.07 0.17 0.10 0.09 0.08 0.02 0.01 0.03 0.11
0.00 0.00 0.00 0.00 0.00 0.00 0.00 0.00 0.00 0.00 0.02 0.02 0.00 0.00 0.00 0.00 0.00 0.00 0.01 0.00 0.00 0.02 0.00 0.00 0.03 0.01 0.00 0.01 0.03 0.00 0.00 0.01 0.19 0.23 0.10 0.12 0.06 0.02 0.04 0.02 0.06 0.03 0.05
0.00 0.00 0.00 0.00 0.00 0.00 0.00 0.00 0.01 0.00 0.00 0.01 0.05 0.03 0.07 0.03 0.01 0.00 0.01 0.00 0.00 0.00 0.02 0.01 0.02 0.06 0.05 0.01 0.02 0.00 0.00 0.00 0.00 0.04 0.24 0.08 0.05 0.11 0.13 0.11 0.07 0.03 0.05
0.00 0.00 0.00 0.00 0.00 0.00 0.00 0.00 0.00 0.00 0.01 0.00 0.01 0.00 0.02 0.07 0.10 0.04 0.01 0.02 0.01 0.00 0.03 0.02 0.00 0.03 0.06 0.02 0.02 0.00 0.00 0.04 0.05 0.03 0.14 0.03 0.09 0.13 0.20 0.16 0.08 0.01 0.01
0.00 0.00 0.00 0.01 0.02 0.01 0.01 0.01 0.02 0.03 0.06 0.08 0.07 0.02 0.10 0.16 0.12 0.07 0.03 0.03 0.01 0.00 0.00 0.09 0.05 0.04 0.03 0.02 0.07 0.02 0.00 0.03 0.08 0.06 0.02 0.04 0.09 0.16 0.07 0.11 0.13 0.03 0.01
0.00 0.00 0.00 0.02 0.04 0.02 0.01 0.03 0.03 0.03 0.05 0.04 0.09 0.06 0.04 0.06 0.06 0.07 0.04 0.03 0.03 0.01 0.01 0.03 0.05 0.03 0.04 0.03 0.08 0.02 0.03 0.06 0.03 0.02 0.01 0.06 0.08 0.09 0.12 0.02 0.02 0.02 0.00
0.01 0.00 0.00 0.00 0.01 0.02 0.03 0.03 0.03 0.05 0.05 0.06 0.05 0.02 0.03 0.06 0.03 0.10 0.13 0.05 0.07 0.03 0.01 0.06 0.02 0.00 0.02 0.04 0.01 0.02 0.07 0.11 0.11 0.03 0.01 0.01 0.02 0.02 0.16 0.11 0.00 0.00 0.04
0.04 0.00 0.00 0.00 0.00 0.00 0.01 0.04 0.01 0.01 0.02 0.04 0.01 0.03 0.00 0.02 0.04 0.05 0.08 0.07 0.08 0.04 0.05 0.05 0.05 0.01 0.00 0.01 0.02 0.01 0.06 0.14 0.15 0.10 0.05 0.00 0.00 0.00 0.04 0.26 0.09 0.09 0.16
0.01 0.00 0.00 0.00 0.00 0.00 0.00 0.02 0.02 0.00 0.00 0.03 0.03 0.03 0.04 0.02 0.00 0.01 0.01 0.02 0.04 0.06 0.08 0.08 0.16 0.05 0.00 0.00 0.05 0.06 0.05 0.12 0.12 0.03 0.03 0.00 0.01 0.00 0.00 0.16 0.13 0.03 0.04
0.00 0.00 0.00 0.00 0.00 0.00 0.00 0.00 0.00 0.00 0.02 0.04 0.07 0.07 0.06 0.08 0.08 0.01 0.01 0.00 0.01 0.06 0.18 0.00 0.05 0.12 0.02 0.02 0.07 0.07 0.15 0.14 0.08 0.10 0.02 0.00 0.01 0.00 0.00 0.02 0.02 0.00 0.00
MSLP
1010.87 1010.88 1011.18 1011.37 1011.71 1011.78 1012.02 1012.59 1012.98 1013.21 1013.51 1013.61 1013.94 1014.33 1014.53 1014.76 1015.04 1015.28 1015.64 1015.82 1015.87 1016.19 1016.39 1016.66 1016.97 1016.94 1017.02 1017.05 1017.22 1017.42 1017.54 1017.67 1017.99 1018.16 1018.39 1018.59 1018.82 1019.04 1019.19 1019.25 1019.45 1019.61 1019.84
1010.32 1010.92 1011.20 1011.53 1011.89 1012.03 1012.21 1012.65 1013.17 1013.48 1013.71 1013.92 1014.24 1014.41 1014.71 1015.16 1015.29 1015.48 1015.78 1015.96 1016.07 1016.23 1016.53 1016.78 1017.00 1017.16 1017.13 1017.16 1017.36 1017.55 1017.74 1017.79 1018.04 1018.26 1018.55 1018.87 1019.03 1019.32 1019.43 1019.44 1019.73 1019.83 1019.96
1010.36 1010.91 1011.35 1011.66 1011.88 1011.94 1012.20 1012.67 1013.14 1013.57 1013.87 1014.30 1014.61 1014.68 1014.84 1015.22 1015.59 1015.67 1015.89 1016.09 1016.31 1016.48 1016.69 1016.93 1017.10 1017.28 1017.36 1017.45 1017.53 1017.64 1017.92 1018.08 1018.14 1018.26 1018.64 1019.04 1019.21 1019.22 1019.39 1019.67 1019.91 1020.03 1020.22
1010.61 1011.02 1011.35 1011.73 1011.93 1012.01 1012.29 1012.68 1013.07 1013.48 1013.86 1014.33 1014.68 1014.90 1015.12 1015.41 1015.60 1015.92 1016.00 1016.11 1016.36 1016.54 1016.86 1017.00 1017.18 1017.36 1017.55 1017.69 1017.79 1017.94 1018.09 1018.31 1018.38 1018.48 1018.77 1019.00 1019.08 1019.35 1019.57 1019.90 1020.11 1020.30 1020.48
1010.37 1011.07 1011.45 1011.60 1011.83 1012.00 1012.28 1012.62 1013.06 1013.50 1013.84 1014.22 1014.63 1014.92 1015.17 1015.50 1015.76 1015.92 1016.23 1016.13 1016.28 1016.56 1016.78 1017.01 1017.23 1017.40 1017.64 1017.85 1018.08 1018.15 1018.45 1018.51 1018.59 1018.60 1018.81 1019.06 1019.26 1019.52 1019.79 1020.02 1020.28 1020.49 1020.72
1010.80 1011.08 1011.30 1011.52 1011.86 1012.01 1012.42 1012.72 1013.09 1013.50 1013.88 1014.19 1014.48 1014.81 1015.12 1015.36 1015.72 1015.97 1016.24 1016.38 1016.41 1016.46 1016.83 1016.96 1017.12 1017.36 1017.59 1017.85 1018.00 1018.21 1018.45 1018.64 1018.70 1018.81 1018.83 1019.00 1019.28 1019.62 1019.96 1020.25 1020.38 1020.59 1020.85
1011.34 1010.90 1011.16 1011.39 1011.92 1012.29 1012.57 1012.93 1013.22 1013.55 1013.90 1014.31 1014.70 1014.97 1015.18 1015.44 1015.73 1015.97 1016.17 1016.46 1016.49 1016.55 1016.71 1016.95 1017.16 1017.28 1017.48 1017.75 1017.92 1018.12 1018.48 1018.67 1018.81 1019.10 1019.03 1019.25 1019.49 1019.75 1020.08 1020.41 1020.65 1020.88 1021.07
1010.79 1011.16 1011.18 1011.56 1012.06 1012.42 1012.74 1013.10 1013.38 1013.68 1013.96 1014.28 1014.72 1015.06 1015.30 1015.54 1015.76 1016.05 1016.22 1016.34 1016.69 1016.71 1016.69 1016.92 1017.21 1017.25 1017.34 1017.66 1017.87 1018.14 1018.57 1018.68 1018.83 1019.11 1019.26 1019.29 1019.69 1020.01 1020.23 1020.63 1020.86 1021.03 1021.25
1010.65 1011.09 1011.63 1011.95 1012.33 1012.56 1012.75 1013.06 1013.38 1013.72 1014.01 1014.36 1014.72 1015.08 1015.37 1015.62 1015.82 1015.95 1016.28 1016.43 1016.60 1016.83 1016.79 1017.00 1017.17 1017.42 1017.32 1017.58 1017.82 1018.17 1018.64 1018.83 1019.04 1019.30 1019.51 1019.47 1019.73 1020.10 1020.40 1020.73 1020.88 1021.10 1021.27
1010.91 1011.38 1011.70 1012.14 1012.39 1012.77 1012.98 1013.21 1013.51 1013.74 1014.10 1014.57 1014.94 1015.24 1015.51 1015.76 1015.99 1016.04 1016.23 1016.44 1016.51 1016.79 1016.83 1017.04 1017.17 1017.37 1017.49 1017.49 1017.79 1018.11 1018.78 1019.09 1019.37 1019.50 1019.67 1019.63 1019.69 1019.91 1020.38 1020.74 1021.01 1021.21 1021.36
1011.16 1011.28 1011.71 1012.02 1012.33 1012.55 1012.92 1013.18 1013.46 1013.76 1014.24 1014.58 1015.05 1015.51 1015.78 1016.06 1016.11 1016.34 1016.24 1016.36 1016.44 1016.49 1016.78 1016.95 1017.15 1017.35 1017.50 1017.48 1017.73 1018.04 1018.58 1019.06 1019.17 1019.38 1019.53 1019.72 1019.93 1020.14 1020.41 1020.73 1021.04 1021.29 1021.45
1011.16 1011.47 1011.83 1011.96 1012.09 1012.26 1012.63 1013.31 1013.76 1013.99 1014.34 1014.74 1015.13 1015.46 1015.80 1016.00 1016.21 1016.24 1016.38 1016.26 1016.24 1016.38 1016.64 1016.88 1016.98 1017.27 1017.67 1017.66 1017.81 1018.01 1018.44 1018.79 1019.04 1019.20 1019.33 1019.54 1019.82 1020.03 1020.51 1020.77 1021.10 1021.28 1021.43
1010.90 1011.17 1011.47 1011.82 1011.76 1012.13 1012.87 1013.55 1013.93 1014.48 1014.67 1014.93 1015.32 1015.56 1015.95 1015.99 1016.05 1016.28 1016.44 1016.27 1016.28 1016.32 1016.43 1016.87 1017.00 1017.20 1017.72 1017.90 1017.90 1017.95 1018.18 1018.69 1018.86 1018.91 1019.04 1019.30 1019.63 1019.94 1020.41 1020.62 1020.97 1021.17 1021.26
1010.56 1010.75 1011.06 1011.52 1011.86 1012.14 1012.64 1013.22 1013.47 1013.87 1014.22 1014.69 1014.67 1014.99 1015.66 1016.29 1016.38 1016.31 1016.49 1016.41 1016.44 1016.48 1016.38 1016.83 1017.00 1017.14 1017.50 1017.67 1017.81 1017.87 1018.16 1018.47 1018.61 1018.79 1019.18 1019.24 1019.60 1019.88 1020.23 1020.43 1020.75 1020.98 1021.17
1010.18 1010.58 1010.97 1011.36 1011.64 1012.23 1012.67 1012.97 1013.81 1013.83 1013.87 1014.20 1014.81 1015.25 1015.40 1015.96 1016.32 1016.19 1016.42 1016.39 1016.31 1016.35 1016.50 1016.53 1016.80 1017.02 1017.41 1017.46 1017.60 1017.76 1017.92 1018.11 1018.41 1018.84 1019.10 1019.28 1019.43 1019.76 1020.02 1020.29 1020.48 1020.79 1021.01
1009.66 1010.22 1010.72 1011.12 1011.39 1011.87 1012.51 1013.07 1013.67 1013.85 1013.73 1013.84 1014.12 1014.16 1015.03 1015.62 1016.15 1016.05 1016.12 1016.30 1016.22 1016.13 1016.43 1016.20 1016.55 1016.88 1017.06 1017.30 1017.49 1017.60 1017.74 1017.81 1018.06 1018.90 1018.97 1018.82 1019.37 1019.56 1019.77 1020.06 1020.24 1020.51 1020.69
1009.37 1009.88 1010.39 1010.75 1011.12 1011.73 1012.39 1012.81 1012.98 1013.31 1013.60 1013.79 1013.89 1014.22 1014.41 1015.03 1015.44 1015.63 1015.82 1016.30 1015.96 1015.84 1015.97 1016.12 1016.36 1016.63 1017.02 1017.21 1017.53 1017.50 1017.43 1017.51 1017.90 1018.11 1018.59 1018.91 1019.14 1019.32 1019.64 1019.84 1019.90 1020.17 1020.32
1009.78 1010.25 1010.49 1010.74 1010.94 1011.36 1011.82 1012.31 1012.52 1012.88 1013.23 1013.47 1013.55 1013.74 1013.91 1014.59 1014.97 1015.25 1015.61 1015.85 1015.56 1015.70 1015.86 1016.10 1016.39 1016.73 1017.07 1017.30 1017.53 1017.49 1017.46 1017.33 1017.62 1017.89 1018.16 1018.48 1018.70 1019.01 1019.21 1019.47 1019.55 1019.78 1020.09
1009.47 1010.16 1010.63 1010.89 1011.10 1011.18 1011.69 1012.21 1012.50 1012.34 1012.66 1013.08 1013.65 1013.79 1013.82 1014.15 1014.42 1014.67 1014.89 1015.21 1015.20 1015.41 1015.75 1016.06 1016.50 1016.74 1017.01 1017.28 1017.40 1017.41 1017.30 1017.39 1017.43 1017.60 1018.10 1018.27 1018.47 1018.69 1018.87 1019.12 1019.46 1019.49 1019.76
1009.06 1009.52 1010.35 1010.95 1011.32 1011.42 1011.51 1011.98 1012.41 1012.60 1012.61 1012.48 1012.79 1012.91 1012.97 1013.34 1013.82 1014.37 1014.46 1014.69 1014.91 1015.38 1015.77 1016.09 1016.48 1016.74 1016.93 1017.02 1017.16 1017.27 1017.22 1017.22 1017.15 1017.63 1017.93 1017.89 1018.12 1018.23 1018.53 1019.03 1019.11 1019.30 1019.41
1009.19 1009.41 1009.55 1010.38 1010.98 1011.36 1011.60 1012.06 1012.57 1012.74 1012.79 1012.93 1012.80 1012.71 1012.83 1012.99 1013.32 1013.90 1014.37 1014.41 1014.56 1015.14 1015.65 1015.77 1016.25 1016.69 1016.96 1016.81 1017.26 1017.44 1017.36 1017.16 1017.19 1017.34 1017.36 1017.63 1017.67 1017.89 1018.24 1018.57 1018.71 1019.01 1019.17
1008.34 1009.69 1009.87 1010.10 1010.72 1011.32 1011.70 1011.92 1012.34 1012.60 1012.64 1012.72 1012.65 1012.57 1012.70 1012.93 1013.22 1013.56 1013.77 1014.11 1014.43 1014.89 1015.27 1015.66 1015.97 1016.54 1016.65 1016.57 1016.97 1017.34 1017.68 1017.55 1017.26 1017.06 1017.30 1017.50 1017.55 1017.63 1017.94 1018.23 1018.43 1018.72 1018.70
1008.57 1009.28 1009.64 1010.01 1010.56 1011.10 1011.45 1011.78 1012.33 1012.65 1012.87 1012.88 1012.69 1012.69 1012.50 1012.53 1012.76 1012.93 1013.20 1013.69 1014.21 1014.51 1014.87 1015.17 1015.57 1015.99 1016.43 1016.51 1016.35 1016.84 1017.26 1017.84 1017.64 1017.27 1017.26 1017.18 1017.18 1017.43 1017.55 1017.70 1017.99 1018.22 1018.47
1008.73 1009.04 1009.35 1009.99 1010.60 1011.03 1011.16 1011.59 1012.19 1012.64 1013.14 1012.93 1012.84 1012.61 1012.34 1012.23 1012.41 1012.57 1012.80 1013.26 1013.91 1014.19 1014.55 1014.80 1015.10 1015.45 1015.84 1016.41 1016.39 1016.43 1016.65 1017.42 1018.37 1018.34 1017.32 1017.13 1017.00 1017.08 1017.26 1017.51 1017.61 1017.79 1018.00
1008.33 1009.40 1010.01 1010.72 1010.99 1011.28 1011.20 1011.65 1012.20 1012.43 1012.60 1012.45 1012.30 1012.21 1011.95 1011.91 1011.94 1012.14 1012.42 1012.94 1013.57 1013.90 1014.15 1014.56 1014.75 1015.00 1015.35 1015.86 1016.09 1016.35 1016.76 1017.24 1017.88 1018.39 1017.93 1017.35 1017.15 1016.77 1016.72 1016.87 1016.87 1017.14 1017.43
1008.77 1009.69 1010.52 1011.04 1011.29 1011.23 1011.53 1012.13 1012.54 1012.68 1012.64 1012.35 1012.10 1011.93 1011.57 1011.46 1011.63 1011.91 1012.11 1012.64 1013.06 1013.58 1013.80 1014.08 1014.27 1014.61 1014.99 1015.41 1015.72 1016.12 1016.52 1017.65 1018.15 1017.92 1017.79 1017.26 1017.03 1016.59 1016.38 1016.42 1016.61 1016.57 1016.71
Thickness
5797 5799 5797 5796 5794 5795 5794 5790 5788 5787 5786 5786 5783 5780 5778 5776 5774 5774 5771 5770 5772 5769 5769 5768 5765 5766 5767 5767 5767 5766 5766 5766 5763 5761 5759 5757 5755 5753 5750 5749 5747 5746 5742
5806 5800 5798 5796 5794 5794 5793 5791 5788 5786 5785 5784 5781 5779 5778 5774 5772 5771 5770 5769 5769 5769 5767 5765 5766 5764 5765 5767 5766 5766 5765 5766 5764 5763 5759 5756 5754 5752 5751 5750 5747 5745 5743
5805 5799 5796 5794 5793 5794 5793 5790 5788 5785 5784 5781 5779 5779 5777 5774 5771 5770 5768 5768 5767 5767 5766 5764 5764 5764 5763 5764 5765 5765 5765 5764 5765 5764 5760 5756 5754 5754 5753 5751 5748 5746 5743
5801 5798 5796 5792 5791 5792 5790 5788 5786 5785 5783 5779 5777 5777 5775 5773 5771 5768 5769 5769 5767 5767 5765 5765 5762 5762 5762 5762 5763 5763 5763 5763 5763 5762 5761 5758 5757 5754 5753 5751 5749 5746 5743
5802 5797 5794 5793 5792 5790 5789 5787 5785 5783 5781 5779 5776 5774 5773 5771 5769 5768 5766 5769 5767 5767 5767 5765 5763 5761 5762 5760 5761 5761 5760 5761 5761 5761 5760 5759 5758 5755 5753 5751 5749 5746 5743
5797 5793 5794 5793 5790 5790 5787 5786 5783 5781 5778 5776 5775 5773 5771 5770 5768 5767 5765 5766 5766 5766 5766 5765 5764 5761 5762 5761 5761 5760 5760 5760 5760 5761 5761 5760 5759 5756 5753 5750 5749 5746 5743
5788 5796 5795 5794 5789 5786 5784 5782 5780 5778 5776 5774 5772 5770 5769 5767 5766 5765 5764 5763 5765 5766 5766 5766 5764 5762 5763 5762 5763 5762 5759 5760 5760 5760 5761 5760 5758 5755 5752 5749 5747 5745 5743
5799 5794 5794 5791 5787 5784 5781 5779 5777 5776 5774 5772 5769 5766 5765 5764 5763 5763 5762 5763 5761 5763 5765 5765 5763 5762 5764 5764 5764 5762 5760 5760 5759 5758 5759 5759 5756 5753 5751 5748 5746 5745 5742
5800 5795 5789 5786 5783 5781 5781 5779 5776 5775 5772 5769 5766 5764 5762 5761 5761 5761 5761 5761 5761 5760 5763 5762 5762 5761 5763 5764 5763 5762 5759 5758 5757 5756 5755 5756 5755 5752 5749 5747 5746 5744 5742
5797 5792 5787 5782 5781 5778 5777 5776 5775 5773 5770 5765 5761 5760 5759 5759 5759 5760 5761 5760 5760 5758 5760 5760 5760 5761 5762 5763 5763 5762 5757 5755 5754 5753 5753 5753 5753 5752 5748 5746 5744 5742 5741
5791 5790 5783 5780 5778 5779 5777 5775 5774 5771 5767 5762 5758 5754 5754 5754 5756 5756 5757 5759 5760 5759 5759 5759 5758 5759 5760 5762 5762 5761 5757 5755 5755 5753 5753 5750 5749 5748 5747 5744 5742 5741 5739
5786 5783 5781 5780 5779 5779 5776 5772 5769 5766 5763 5759 5756 5753 5751 5751 5751 5753 5753 5755 5758 5760 5759 5758 5758 5757 5756 5759 5759 5760 5758 5756 5754 5753 5754 5752 5749 5747 5744 5742 5741 5740 5738
5784 5784 5783 5779 5780 5778 5772 5767 5765 5759 5756 5753 5749 5748 5746 5746 5747 5747 5745 5749 5755 5757 5759 5757 5756 5756 5753 5755 5757 5760 5759 5754 5753 5754 5755 5753 5750 5747 5743 5742 5740 5740 5739
5785 5785 5783 5780 5778 5776 5771 5767 5764 5759 5757 5754 5757 5754 5747 5741 5742 5745 5743 5746 5750 5753 5757 5757 5755 5755 5752 5753 5756 5758 5757 5754 5754 5754 5752 5751 5749 5746 5743 5742 5740 5739 5738
5789 5787 5781 5777 5776 5773 5769 5765 5757 5756 5758 5758 5755 5752 5751 5744 5741 5743 5741 5744 5747 5750 5752 5756 5755 5754 5752 5754 5755 5756 5756 5755 5755 5753 5752 5749 5749 5747 5744 5742 5740 5739 5738
5793 5787 5781 5777 5777 5772 5767 5762 5757 5755 5758 5758 5756 5755 5747 5743 5737 5739 5741 5741 5744 5745 5747 5754 5754 5754 5754 5753 5753 5754 5756 5757 5757 5750 5750 5751 5747 5745 5744 5742 5740 5738 5738
5793 5789 5783 5780 5779 5775 5768 5761 5758 5756 5755 5754 5754 5749 5747 5742 5738 5737 5739 5736 5741 5744 5744 5748 5750 5751 5751 5751 5751 5753 5756 5754 5753 5754 5751 5748 5746 5745 5742 5740 5738 5738 5738
5790 5785 5783 5782 5778 5773 5770 5765 5761 5756 5754 5752 5751 5748 5745 5739 5736 5737 5737 5735 5740 5741 5740 5743 5746 5746 5747 5748 5747 5751 5754 5754 5752 5751 5750 5746 5748 5745 5742 5739 5739 5738 5736
5791 5786 5781 5778 5776 5773 5768 5761 5753 5752 5748 5746 5742 5740 5738 5734 5735 5736 5737 5735 5738 5739 5739 5737 5738 5740 5741 5744 5745 5747 5753 5753 5752 5749 5747 5745 5744 5744 5742 5740 5738 5737 5735
5793 5791 5784 5778 5774 5771 5768 5761 5754 5749 5746 5745 5743 5741 5740 5735 5731 5731 5734 5735 5736 5735 5734 5732 5732 5735 5737 5741 5743 5744 5748 5752 5753 5750 5747 5746 5745 5745 5743 5738 5736 5736 5735
5786 5787 5787 5778 5773 5769 5764 5757 5749 5743 5739 5733 5731 5730 5730 5731 5730 5728 5727 5732 5734 5732 5729 5731 5730 5729 5731 5738 5736 5738 5742 5748 5749 5749 5750 5748 5747 5746 5743 5740 5738 5736 5732
5792 5782 5781 5778 5771 5765 5760 5755 5747 5742 5736 5729 5724 5723 5723 5721 5720 5723 5728 5729 5731 5729 5728 5727 5726 5725 5730 5735 5730 5732 5726 5734 5744 5747 5747 5745 5746 5745 5743 5739 5738 5735 5734
5786 5783 5780 5775 5768 5764 5760 5752 5743 5735 5726 5718 5717 5717 5718 5719 5717 5721 5723 5725 5725 5728 5727 5726 5725 5726 5724 5730 5736 5731 5723 5719 5729 5738 5741 5743 5745 5744 5742 5740 5737 5735 5732
5783 5785 5781 5770 5766 5762 5758 5750 5738 5727 5715 5713 5712 5713 5715 5716 5716 5718 5721 5720 5722 5725 5726 5726 5727 5727 5727 5724 5731 5735 5737 5730 5715 5716 5733 5739 5742 5742 5742 5738 5736 5734 5732
5790 5778 5772 5764 5762 5758 5753 5744 5733 5723 5716 5716 5715 5714 5714 5715 5716 5718 5720 5719 5719 5721 5723 5723 5725 5725 5726 5723 5726 5727 5728 5728 5722 5716 5716 5726 5735 5740 5741 5739 5738 5735 5733
5785 5775 5766 5760 5757 5755 5746 5737 5727 5717 5713 5713 5715 5716 5717 5717 5718 5719 5719 5718 5717 5716 5719 5722 5725 5725 5724 5723 5724 5726 5725 5717 5713 5716 5715 5722 5726 5735 5739 5739 5737 5737 5736